This is the latest recevied weather packets stored in our database for station/object KD4PMP. If no packets are shown the sender has not sent any weather packets the latest 10 day(s).
| Time | Temp. | Humidity | Pressure | Rain* | Wind** | Luminosity | Snow |
|---|---|---|---|---|---|---|---|
| 1777778416 | 7.78° C | 92% | 1018.9 hPa | 0 mm | - | - | - |
| 1777777816 | 7.78° C | 91% | 1018.9 hPa | 0 mm | - | - | - |
| 1777777216 | 7.78° C | 91% | 1018.7 hPa | 0 mm | - | - | - |
| 1777776615 | 8.33° C | 91% | 1018.7 hPa | 0 mm | - | - | - |
| 1777776015 | 8.33° C | 90% | 1018.6 hPa | 0 mm | - | - | - |
| 1777775415 | 8.33° C | 90% | 1018.5 hPa | 0 mm | - | - | - |
| 1777774815 | 8.89° C | 90% | 1018.4 hPa | 0 mm | - | - | - |
| 1777774214 | 8.89° C | 89% | 1018.2 hPa | 0 mm | - | - | - |
| 1777773614 | 8.89° C | 88% | 1018.3 hPa | 0 mm | - | - | - |
| 1777773013 | 9.44° C | 88% | 1018.2 hPa | 0 mm | - | - | - |
| 1777772413 | 9.44° C | 88% | 1018.1 hPa | 0 mm | - | - | - |
| 1777771814 | 10° C | 86% | 1018 hPa | 0 mm | - | - | - |
| 1777771213 | 10° C | 85% | 1017.9 hPa | 0 mm | - | - | - |
| 1777770612 | 10.56° C | 84% | 1017.9 hPa | 0 mm | - | - | - |
| 1777770012 | 10.56° C | 83% | 1017.8 hPa | 0 mm | - | - | - |
| 1777769412 | 11.11° C | 83% | 1017.6 hPa | 0 mm | - | - | - |
| 1777768812 | 11.11° C | 83% | 1017.5 hPa | 0 mm | - | - | - |
| 1777768212 | 11.67° C | 82% | 1017.4 hPa | 0 mm | - | - | - |
| 1777767611 | 11.67° C | 81% | 1017.1 hPa | 0 mm | - | - | - |
| 1777767011 | 12.22° C | 79% | 1016.9 hPa | 0 mm | - | - | - |
| 1777766411 | 12.78° C | 78% | 1016.9 hPa | 0 mm | - | - | - |
| 1777765810 | 13.33° C | 78% | 1016.5 hPa | 0 mm | - | - | - |
| 1777765210 | 13.33° C | 77% | 1016.3 hPa | 0 mm | - | - | - |
| 1777764610 | 13.33° C | 79% | 1016.4 hPa | 0 mm | - | - | - |
| 1777764009 | 13.33° C | 80% | 1016.1 hPa | 0 mm | - | - | - |
* Rain latest hour (hover to see other rain measurements)
** Current wind speed in m/s (hover to see current wind gust speed)